Find Starlink 5702

NORAD ID: 55622 Int'l Des: 2023-020 Owner: SPXS Country: US Constellation: starlink operational
LEOCIRCULAR

現在のビュー

3D地球を読み込み中...

About Starlink 5702

Starlink 5702 (NORAD 55622) is a starlink constellation satellite (v1.5) launched Feb 12, 2023 by SPXS of US. It operates in LEO, CIRCULAR orbit with a mass of 305.00 kg.

Starlink 5702について

説明を読み込み中...

次回通過

Passes for default location (London). Set your location on the main map for personalized predictions.

高度履歴

Loading altitude history...

軌道要素

1 55622U 23020BF 26171.24519098 .00000417 00000-0 24670-4 0 9997
2 55622 43.0036 135.0617 0001431 237.9161 122.1552 15.27581530184726
Epoch: Jun 20, 2026 • Age: 13 hours

現在のステータス

高度 484.7 km
速度 7.63 km/s
衛星直下点 31.00°N, 16.85°W
打ち上げ日 Feb 12, 2023
運用期間 3.3 years
タイプ internet

技術仕様

分類 Payload
質量 305.00 kg
乾燥質量 290.00 kg
総質量 305.00 kg
長さ 0.20 m
直径 2.80 m
スパン 9.00 m
形状 Box + pan
製造者 SPXS
バスタイプ Starlink
フェーズステータス In Orbit
所有者/国 SPXS/US

Most Searched